Welcome to the New NWS' Forecast!
Most changes are behind the scenes, but click here for differences you might notice.

Regional Weather Roundup (RWR)

Issued by New York, NY (OKX)

                            
162 
ASUS41 KOKX 201306
RWROKX

Regional Weather Roundup
National Weather Service New York NY
900 AM EDT MON AUG 20 2018

Note: "FAIR" indicates few or no clouds below 12,000 feet with no
significant weather and/or obstructions to visibility.

NYZ071-072-176-178-NJZ106-104-201400-
New York City Metro Area
  
CITY           SKY/WX    TMP DP  RH WIND       PRES   REMARKS
Central Park   CLOUDY    69  62  78 VRB6      30.17R                  
Bronx Bot Gard NOT AVBL                                               
Bronx Lehman C   N/A     68  61  77 E9          N/A                   
LaGuardia Arpt CLOUDY    71  62  73 NE17G24   30.13S                  
Queens College   N/A     68  63  83 NE10        N/A                   
Kennedy Intl   PTSUNNY   71  65  81 NE15      30.14R                  
Breezy Point     N/A     68 N/A N/A NE10        N/A                   
Brooklyn Coll    N/A    N/A N/A N/A N8          N/A                   
Staten Island    N/A     70  63  78 NE5         N/A                   
Newark/Liberty FAIR      71  62  73 NE10      30.13R                  
Teterboro      CLOUDY    70  62  76 NE5       30.13S                  
$$
 
NYZ177-179-078>081-201400-
Long Island New York
  
CITY           SKY/WX    TMP DP  RH WIND       PRES   REMARKS
Jones Beach      N/A     68 N/A N/A NE13        N/A                   
Wantagh          N/A     68  64  88 NE6         N/A                   
Hempstead        N/A     68  64  88 NE3       30.16S                  
Matinecock Pt    N/A     66 N/A N/A E18         N/A                   
Farmingdale    CLOUDY    68  64  87 NE10      30.14R                  
MacArthur/ISP  CLOUDY    68  66  93 NE10      30.13S                  
Stony Brook      N/A     66  64  94 E2          N/A                   
Shirley        CLOUDY    68  67  96 VRB6      30.14S                  
Mt Sinai Harb    N/A    N/A N/A N/A NE7G14      N/A                   
Westhampton    CLOUDY    69  63  81 N8        30.15R                  
East Hampton   CLOUDY    66  64  92 NE6       30.13R FOG              
Southold         N/A     68  64  88 NE12        N/A                   
Montauk          N/A     67  66  97 NE10      30.14R                  
$$
 
NYZ052-065-067-201400-
Hudson Valley
  
CITY           SKY/WX    TMP DP  RH WIND       PRES   REMARKS
White Plains   PTSUNNY   67  62  84 E6        30.15R                  
Larchmont Harb   N/A     66 N/A N/A N14         N/A                   
Croton On Huds   N/A     70 N/A N/A E5          N/A                   
Somers           N/A     66  63  88 NE3         N/A                   
Brewster         N/A     66  61  82 NE3         N/A                   
Newburgh       CLOUDY    66  63  88 NE12      30.17R                  
Montgomery     CLOUDY    67  60  78 NE9       30.16R                  
Otisville        N/A     64  59  82 E3          N/A                   
Warwick          N/A     64  64 100 NE3         N/A                   
Suffern          N/A     66  63  88 N2          N/A                   
Poughkeepsie   CLOUDY    68  60  75 N3        30.15R                  
Albany         FAIR      68  60  75 NW5       30.19S                  
$$
 
NJZ001-105-106-008-010-013-015-019>022-104-201400-
New Jersey
  
CITY           SKY/WX    TMP DP  RH WIND       PRES   REMARKS
Newark/Liberty FAIR      71  62  73 NE10      30.13R                  
Teterboro      CLOUDY    70  62  76 NE5       30.13S                  
Caldwell       CLOUDY    68  62  81 E6        30.15R                  
Somerville     PTSUNNY   70  62  76 NE5       30.11S                  
Linden         PTSUNNY   71  61  69 NE9       30.12F                  
Perth Amboy      N/A     70 N/A N/A NE9         N/A                   
Sussex         CLOUDY    67  62  84 VRB5      30.16S                  
Andover          N/A     67  63  87 VRB3      30.16R                  
Trenton        PTSUNNY   71  63  75 NE7       30.12S                  
Millville      CLOUDY    70  63  78 NE13      30.11R                  
Atlantic City  CLOUDY    72  67  84 NE8       30.11R                  
Wrightstown    MOSUNNY   69  64  85 NE8       30.09S                  
Toms River     PTSUNNY   70  65  84 NE7       30.13R                  
Belmar         PTSUNNY   70  64  81 NE9       30.14S                  
$$
 
PAZ047>061-062-071-201400-
Eastern Pennsylvania
  
CITY           SKY/WX    TMP DP  RH WIND       PRES   REMARKS
Philadelphia   CLOUDY    70  62  76 E10       30.12R                  
Allentown      CLOUDY    70  62  76 E8        30.14R                  
Scranton       FAIR      66  58  75 E7        30.16S                  
$$

CTZ002-004>006-009-010-012-RIZ004-006-007-MAZ004-011-015-201400-
Southern New England

 In CT
  
CITY           SKY/WX    TMP DP  RH WIND       PRES   REMARKS
Bradley Intl   PTSUNNY   69  61  75 N7        30.17S                  
Hartford       CLOUDY    69  61  75 N8        30.16R                  
Danbury        CLOUDY    66  62  87 NE7       30.17R                  
Wtrbury/Oxford PTSUNNY   66  61  84 E13       30.18R                  
Norwalk Harbor   N/A     66 N/A N/A NE14        N/A                   
Bridgeport     CLOUDY    70  62  76 NE13      30.14S                  
Meriden        CLOUDY    68  60  75 NE6       30.16R                  
New Haven      CLOUDY    71  62  73 NE12      30.15R                  
Chester        PTSUNNY   70  63  78 N8G14     30.16R                  
Groton         CLOUDY    69  63  81 N13       30.14R                  
Willimantic    CLOUDY    69  62  78 NE9       30.17R                  

 In RI
  
CITY           SKY/WX    TMP DP  RH WIND       PRES   REMARKS
Providence     CLOUDY    68  62  81 N13       30.16R                  
Block Island   CLOUDY    67  65  93 NE13G24   30.13R                  
Westerly       CLOUDY    70  65  84 N8        30.14R                  
 
In MA
  
CITY           SKY/WX    TMP DP  RH WIND       PRES   REMARKS
Boston         CLOUDY    69  62  78 NE13      30.17S                  
Worcester      PTSUNNY   63  60  90 NE6       30.19S                  
Westfield      CLOUDY    70  61  73 N12       30.17S                  
Provincetown   CLOUDY    66  63  90 NE13G18   30.14R                  
Nantucket      LGT RAIN  67  67 100 NE15      30.10R FOG              
$$

ANZ330-335-338-340-345-350-353-355-201400-
Coastal Marine Observations

  
STATION/POSITION TIME  SKY/WX   TEMP    WIND        PRES    VSBY  WAVE
                                AIR SEA DIR/SP/G                  HT/PER
                 (UTC)          (F)     (DEG/KT/KT) (MB)    (MI)  (FT/S)
NY Harb Entrance 1250            69 74   40/ 14/ 17 1019.8          3/ 6
20 S Fire Island 1250            70 72   40/ 16/ 19 1019.7          4/ 6
Great South Bay  1215            68 77   20/ 14/ 16   N/A
23 SSW Montauk P 1250            68 73              1019.8          4/ 5
15 E Barnegat Li 1230               75                N/A           4/ 7
Hudson Canyon    1250            73      30/ 14/ 16 1018.5          4/ 6
Kings Point      1242            68 74   80/  6/ 10 1021.6
Execution Rocks  1230               74   40/ 12/ 16   N/A
Western LI Sound 1150            68      60/ 16/ 19   N/A           1/ 2
Central LI Sound 1230            69 74   40/ 16/ 19   N/A           1/ 2
Robbins Reef     1248            69      60/ 12/ 14 1020.7
$$


>>>>>>>>>>>>>>>>>>>>>>>>>>>> KEY <<<<<<<<<<<<<<<<<<<<<<<<<<<
>                                                          <
>     SKY/WX - Sky Condition/Present Weather               <
>     TMP    - Temperature in Fahrenheit                   <
>     DP     - Dew Point in Fahrenheit                     <
>     RH     - Relative Humidity in Percent                <
>     WIND   - Direction (from) and Speed in MPH           <
>     PRES   - Mean Sea Level Pressure (inches of Hg)      <
>     WCI    - Wind Chill Index                            <
>     VSB    - Visibility in Miles                         <
>     HX     - Heat Index                                  <
>     TC     - Temperature in Celsius                      <
>     VRB    - Varibale Wind Direction                     <
>                                                          <
>>>>>>>>>>>>>>>>>>>>>>>>>>>> KEY <<<<<<<<<<<<<<<<<<<<<<<<<<<